TimeMST,TemperatureF,Dew PointF,Humidity,Sea Level PressureIn,VisibilityMPH,Wind Direction,Wind SpeedMPH,Gust SpeedMPH,PrecipitationIn,Events,Conditions,WindDirDegrees,DateUTC
12:06 AM,-0.4,-4.0,85,29.97,10.0,Calm,Calm,-,N/A,,Mostly Cloudy,0,2013-01-01 07:06:00
12:26 AM,-0.4,-5.8,78,29.97,10.0,SSW,5.8,-,N/A,,Overcast,210,2013-01-01 07:26:00
12:53 AM,1.9,-4.0,76,30.12,10.0,SSW,5.8,-,N/A,,Overcast,200,2013-01-01 07:53:00
1:02 AM,3.2,-2.2,78,29.97,8.0,South,5.8,-,N/A,,Overcast,190,2013-01-01 08:02:00
1:28 AM,3.2,-2.2,78,29.98,10.0,SSW,4.6,-,N/A,,Overcast,200,2013-01-01 08:28:00
1:51 AM,3.2,-2.2,78,29.99,10.0,South,6.9,-,N/A,,Overcast,180,2013-01-01 08:51:00
1:53 AM,3.9,-2.0,76,30.13,10.0,South,6.9,-,N/A,,Overcast,190,2013-01-01 08:53:00
2:53 AM,-0.0,-5.1,79,30.19,8.0,SSW,5.8,-,N/A,,Overcast,200,2013-01-01 09:53:00
3:05 AM,-0.4,-5.8,78,30.01,10.0,SSW,5.8,-,N/A,,Overcast,200,2013-01-01 10:05:00
3:25 AM,-2.2,-7.6,78,30.01,10.0,South,6.9,-,N/A,,Scattered Clouds,190,2013-01-01 10:25:00
3:53 AM,-0.9,-6.0,79,30.20,10.0,South,4.6,-,N/A,,Overcast,190,2013-01-01 10:53:00
4:34 AM,-2.2,-5.8,85,30.02,10.0,Calm,Calm,-,N/A,,Overcast,0,2013-01-01 11:34:00
4:53 AM,-0.0,-6.0,76,30.22,10.0,SSE,3.5,-,N/A,,Overcast,150,2013-01-01 11:53:00
5:08 AM,-0.4,-5.8,78,30.03,10.0,SSW,4.6,-,N/A,,Overcast,200,2013-01-01 12:08:00
5:20 AM,-2.2,-7.6,78,30.03,10.0,South,4.6,-,N/A,,Mostly Cloudy,180,2013-01-01 12:20:00
5:30 AM,-2.2,-7.6,78,30.03,10.0,SSW,4.6,-,N/A,,Mostly Cloudy,210,2013-01-01 12:30:00
5:53 AM,-0.9,-6.0,79,30.23,10.0,Calm,Calm,-,N/A,,Mostly Cloudy,0,2013-01-01 12:53:00
6:53 AM,1.9,-4.0,76,30.24,6.0,SE,3.5,-,0.00,Snow,Light Snow,140,2013-01-01 13:53:00
7:53 AM,3.9,-2.0,76,30.26,5.0,Calm,Calm,-,0.00,,Haze,0,2013-01-01 14:53:00
8:25 AM,6.8,1.4,79,30.07,2.0,Calm,Calm,-,0.00,Snow,Light Snow,0,2013-01-01 15:25:00
8:53 AM,6.1,1.0,80,30.29,2.0,Calm,Calm,-,0.00,Snow,Light Snow,0,2013-01-01 15:53:00
9:53 AM,9.0,3.9,80,30.29,3.0,Calm,Calm,-,0.00,Snow,Light Snow,0,2013-01-01 16:53:00
10:29 AM,10.4,5.0,79,30.11,6.0,Calm,Calm,-,0.00,Snow,Light Snow,0,2013-01-01 17:29:00
10:53 AM,10.9,6.1,81,30.30,10.0,Calm,Calm,-,0.00,,Scattered Clouds,0,2013-01-01 17:53:00
11:53 AM,15.1,3.0,59,30.27,10.0,Calm,Calm,-,N/A,,Scattered Clouds,0,2013-01-01 18:53:00
12:53 PM,17.1,3.0,54,30.25,10.0,North,8.1,-,N/A,,Scattered Clouds,10,2013-01-01 19:53:00
1:53 PM,15.1,1.9,56,30.24,10.0,North,8.1,-,N/A,,Scattered Clouds,350,2013-01-01 20:53:00
2:53 PM,15.1,1.9,56,30.27,10.0,North,5.8,-,N/A,,Clear,350,2013-01-01 21:53:00
3:53 PM,15.1,3.0,59,30.30,10.0,NW,4.6,-,N/A,,Partly Cloudy,320,2013-01-01 22:53:00
4:53 PM,9.0,-0.0,67,30.34,10.0,South,3.5,-,N/A,,Partly Cloudy,190,2013-01-01 23:53:00
5:53 PM,6.1,-0.9,73,30.38,10.0,SSW,9.2,-,N/A,,Scattered Clouds,200,2013-01-02 00:53:00
6:53 PM,3.0,-2.0,80,30.38,10.0,SSW,4.6,-,N/A,,Scattered Clouds,200,2013-01-02 01:53:00
7:53 PM,1.9,-2.9,80,30.41,10.0,SSW,3.5,-,N/A,,Scattered Clouds,210,2013-01-02 02:53:00
8:53 PM,3.9,-2.0,76,30.40,10.0,SSW,4.6,-,N/A,,Overcast,200,2013-01-02 03:53:00
9:53 PM,6.1,-0.9,73,30.36,10.0,Calm,Calm,-,N/A,,Overcast,0,2013-01-02 04:53:00
10:53 PM,8.1,1.0,73,30.35,10.0,Calm,Calm,-,N/A,,Overcast,0,2013-01-02 05:53:00
11:53 PM,9.0,1.9,73,30.31,10.0,Calm,Calm,-,N/A,,Overcast,0,2013-01-02 06:53:00